{"data":{"norad_id":65950,"epoch":"2026-05-25T01:06:07.871616Z","epoch_age_seconds":74126,"freshness":"FRESH","line1":"1 65950U 25228D   26145.04592444  .00003480  00000+0  48513-3 0  9992","line2":"2 65950  51.9011  15.4423 0001147 103.7016 256.4074 14.79943666 34644","mean_motion":14.79943666,"eccentricity":0.0001147,"inclination_deg":51.9011,"raan_deg":15.4423,"arg_perigee_deg":103.7016,"mean_anomaly_deg":256.4074,"bstar":0.00048513,"rev_number":3464,"period_min":97.301000915261,"perigee_km":628.6981832696,"apogee_km":630.3057356469,"semimajor_km":7007.6389594583,"source":"CELESTRAK","updated_at":"2026-05-25T13:38:05.844903Z"}}